Regional Weather Roundup
Issued by NWS New Orleans/Baton Rouge, LA

Home | Current Version | Previous Version | Text Only | Print | Product List | Glossary On
Versions: 1 2 3 4 5 6 7 8 9 10 11 12 13 14 15 16 17 18 19 20 21 22 23 24 25 26 27 28 29 30 31 32 33 34 35 36 37 38 39 40 41 42 43 44 45 46 47 48 49 50
000
ASUS44 KLIX 240113
RWRLIX
NEW ORLEANS REGIONAL WEATHER ROUNDUP
NATIONAL WEATHER SERVICE NEW ORLEANS LA
800 PM CDT WED AUG 23 2017

NOTE: "FAIR" INDICATES FEW OR NO CLOUDS BELOW 12,000 FEET WITH NO
      SIGNIFICANT WEATHER AND/OR OBSTRUCTIONS TO VISIBILITY.
      SKY/WX - SKY CONDITION AND SIGNIFICANT WEATHER.
      TMP - AIR TEMPERATURE.     DP    - DEWPOINT TEMPERATURE.
      RH  - RELATIVE HUMIDITY.   PRES  - PRESSURE.
      HI  - HEAT INDEX.          WCI   - WIND CHILL INDEX.

*  THESE STATIONS ARE NOT NWS OR FAA STATIONS AND ARE NOT UNDER
   NWS QUALITY CONTROL.

LAZ038-040-048-061>063-065>067-069-240200-
SOUTHEAST LOUISIANA

CITY           SKY/WX    TMP DP  RH WIND       PRES   REMARKS
N.O. INTL ARPT CLOUDY    82  77  84 SW5       29.89R
N.O. LAKEFRONT CLOUDY    86  77  74 S7        29.89R HX  97
N.O. DOWNTOWN*   N/A     88  76  67 VRB3      29.90S HX  99
RESERVE*         N/A     84  76  76 S7        29.90R
SLIDELL        PTCLDY    83  75  77 S3        29.88R
BATON ROUGE    CLEAR     84  74  71 CALM      29.88R
BOOTHVILLE     CLOUDY    84  78  82 SE3       29.90R HX  95
BELLE CHASSE   NOT AVBL
BOGALUSA*        N/A     84  77  79 W3        29.90R
GALLIANO*      CLOUDY    80  75  85 CALM      29.89S
NEW ROADS*       N/A     83  76  79 CALM      29.89R
GONZALES*        N/A     82  77  86 CALM      29.88R
HAMMOND*       PTCLDY    84  73  70 CALM      29.88S
HOUMA*         NOT AVBL
PORT FOURCHON* PTCLDY    86  75  70 SE5       29.89R HX  95

$$

MSZ070-080>082-240200-
SOUTHERN MISSISSIPPI

CITY           SKY/WX    TMP DP  RH WIND       PRES   REMARKS
MCCOMB         MOCLDY    84  73  69 N12       29.91R
GULFPORT       PTCLDY    84  75  74 S3        29.89R
BILOXI         CLOUDY    83  71  68 S3        29.89R
PASCAGOULA     LGT RAIN  76  72  87 SE3       29.91R
STENNIS ARPT*  PTCLDY    81  75  83 CALM      29.89R

$$

COASTAL OBSERVATIONS
LAKE AND NEARSHORE STATIONS

STATION/POSITION TIME  TEMP    WIND        PRES    WAVE
                       AIR SEA DIR/SP/G            HT/PER
                 (UTC) (F)     (DEG/KT/KT) (MB)    (FT/S)
PASCAGOULA       0048   81      80/ 10/ 13 1012.6
WAVELAND YACHT   0048   85 87  210/  3/  6 1012.1
GRAND ISLE       0048   85 89  130/  2/  3 1012.4
SOUTHWEST PASS   0048   86     130/  5/  7   N/A
NEW CANAL        0048   85 89  200/  5/  7 1012.0
SHELL BEACH      0048   84 90  150/  4/  5 1012.3

OFFSHORE STATIONS

STATION/POSITION TIME  TEMP    WIND        PRES    WAVE
                       AIR SEA DIR/SP/G            HT/PER
                 (UTC) (F)     (DEG/KT/KT) (MB)    (FT/S)
64 S DAUPHIN ISL 0050   85 89  130/  4/  6 1012.4    2/ 6

$$




USA.gov is the U.S. government's official web portal to all federal, state and local government web resources and services.